Torna al catalogo

INTELSAT 37E

AttivoComunicazioniGEO
NORAD 42950·PAYLOAD· XX

Lanciato Sep 29, 2017 da Guiana Space Centre

Loading…

TLE

AggiornatoSource: CelesTrak SupGP

Epoca: Sep 14, 2026, 20:21 UTC

1 42950C 17059A   26257.84861111 -.00003280  00000+0  00000+0 0  2573
2 42950   0.0040 211.6104 0002743 317.4132 112.3074  1.00272303    15

Traccia INTELSAT 37E in tempo reale con AllMySat

Download on the App Store